This is the latest recevied weather packets stored in our database for station/object KE8ZLU. If no packets are shown the sender has not sent any weather packets the latest 10 day(s).
| Time | Temp. | Humidity | Pressure | Rain* | Wind** | Luminosity | Snow |
|---|---|---|---|---|---|---|---|
| 1777650463 | 8.33° C | 60% | 1015.4 hPa | 0 mm | - | 556 W/m² | - |
| 1777650160 | 8.33° C | 60% | 1015.4 hPa | 0 mm | - | 470 W/m² | - |
| 1777649858 | 7.78° C | 61% | 1015.3 hPa | 0 mm | - | 276 W/m² | - |
| 1777649555 | 8.33° C | 63% | 1015.2 hPa | 0 mm | - | 234 W/m² | - |
| 1777649251 | 8.33° C | 61% | 1015.2 hPa | 0 mm | - | 266 W/m² | - |
| 1777648948 | 7.78° C | 62% | 1015.4 hPa | 0 mm | - | 345 W/m² | - |
| 1777648645 | 7.22° C | 61% | 1015.4 hPa | 0 mm | - | 275 W/m² | - |
| 1777648341 | 7.78° C | 63% | 1015.3 hPa | 0 mm | - | 338 W/m² | - |
| 1777648038 | 7.78° C | 65% | 1015.4 hPa | 0 mm | - | 228 W/m² | - |
| 1777647734 | 7.78° C | 65% | 1015.3 hPa | 0 mm | - | 561 W/m² | - |
| 1777647431 | 7.78° C | 63% | 1015.3 hPa | 0 mm | - | 633 W/m² | - |
| 1777647129 | 7.78° C | 66% | 1015.3 hPa | 0 mm | - | 409 W/m² | - |
| 1777646825 | 7.22° C | 67% | 1015.5 hPa | 0 mm | - | 379 W/m² | - |
| 1777646520 | 7.78° C | 65% | 1015.2 hPa | 0 mm | - | 442 W/m² | - |
| 1777646216 | 7.78° C | 65% | 1015.3 hPa | 0 mm | - | 559 W/m² | - |
| 1777645914 | 7.22° C | 72% | 1015.1 hPa | 0 mm | - | 370 W/m² | - |
| 1777645611 | 6.67° C | 70% | 1015.4 hPa | 0 mm | - | 184 W/m² | - |
| 1777645306 | 7.78° C | 73% | 1015.3 hPa | 0 mm | - | 256 W/m² | - |
| 1777645003 | 6.67° C | 76% | 1015.1 hPa | 0 mm | - | 317 W/m² | - |
| 1777644700 | 7.22° C | 74% | 1015.2 hPa | 0 mm | - | 281 W/m² | - |
| 1777644396 | 6.67° C | 75% | 1015.4 hPa | 0 mm | - | 397 W/m² | - |
| 1777644093 | 6.67° C | 78% | 1015.3 hPa | 0 mm | - | 281 W/m² | - |
| 1777643790 | 6.67° C | 79% | 1015.3 hPa | 0 mm | - | 385 W/m² | - |
| 1777643487 | 6.11° C | 80% | 1015 hPa | 0 mm | - | 382 W/m² | - |
| 1777643183 | 6.11° C | 83% | 1015.1 hPa | 0 mm | - | 441 W/m² | - |
* Rain latest hour (hover to see other rain measurements)
** Current wind speed in m/s (hover to see current wind gust speed)